Regional Weather Roundup
Issued by NWS Charleston, SC

Current Version | Previous Version | Graphics & Text | Print | Product List | Glossary On
Versions: 1 2 3 4 5 6 7 8 9 10 11 12 13 14 15 16 17 18 19 20 21 22 23 24 25 26 27 28 29 30 31 32 33 34 35 36 37 38 39 40 41 42 43 44 45 46 47 48 49 50
468
ASUS42 KCHS 261113
RWRCHS

REGIONAL WEATHER ROUNDUP
NATIONAL WEATHER SERVICE CHARLESTON SC
700 AM EDT TUE JUL 26 2016

NOTE: "FAIR" INDICATES FEW OR NO CLOUDS BELOW 12,000 FEET WITH NO
SIGNIFICANT WEATHER AND/OR OBSTRUCTIONS TO VISIBILITY.

NOT ALL STATIONS ARE QUALITY CONTROLLED. USE DATA WITH CAUTION...
ESPECIALLY DEWPOINT OBSERVATIONS.

SCZ027-030-031-034>040-042>050-261200-
...SOUTHEAST SOUTH CAROLINA...

CITY           SKY/WX    TMP DP  RH WIND       PRES   REMARKS
N CHARLESTON   PTCLDY    76  72  87 SW3       30.06R
WATERFRONT PRK   N/A     80  76  87 CALM      30.03R
MOUNT PLEASANT FAIR      73  73 100 CALM      30.06R
JOHNS ISLAND   FAIR      75  73  94 CALM      30.06R
PINOPOLIS        N/A     79  73  83 SW7       29.97R
MONCKS CORNER  FAIR      72  70  94 CALM      30.05S
SUMMERVILLE    FAIR      73  73 100 S3        30.06R
BEAUFORT MCAS  PTCLDY    77  73  87 SW5       30.06R
BEAUFORT ARPT  FAIR      79  73  83 SW6       30.06R
HILTON HEAD IS CLEAR     79  72  78 SW6       30.07R
WALTERBORO     SUNNY     75  75 100 CALM      30.06R
ALLENDALE      FAIR      73  72  94 CALM      30.04R

...SOUTHERN MIDLANDS AND PEE DEE...

CITY           SKY/WX    TMP DP  RH WIND       PRES   REMARKS
GEORGETOWN     FAIR      72  70  94 CALM      30.07R
KINGSTREE      FAIR      72  68  88 CALM      30.05R
ORANGEBURG     CLEAR     73  71  93 CALM      30.05R
BARNWELL       NOT AVBL
AIKEN          FAIR      72  70  94 S3        30.08R
MANNING        FAIR      73  72  94 CALM      30.05R
COLUMBIA       PTCLDY    77  71  82 CALM      30.03R
SUMTER         CLEAR     75  71  89 S3        30.02S FOG
FLORENCE       CLEAR     76  73  91 SW3       30.04R
MYRTLE BEACH   CLEAR     77  66  69 W5        30.07R
N MYRTLE BEACH CLEAR     79  73  82 SW6       30.05R

$$

GAZ063-065-086>088-099>101-113>116-118-119-134>141-150-261200-
...SOUTHEAST GEORGIA...

CITY           SKY/WX    TMP DP  RH WIND       PRES   REMARKS
SAVANNAH ARPT  PTCLDY    75  71  87 SW5       30.06R
HUNTER AAF     CLEAR     76  76  99 W2        30.04R
FORT STEWART   CLEAR     73  71  93 CALM      30.04R
STATESBORO     CLEAR     76  74  93 CALM      30.06R
SYLVANIA       NOT AVBL
CLAXTON        FAIR      72  72 100 CALM      30.06R

...CSRA...CENTRAL AND FAR SOUTHEAST GEORGIA...

CITY           SKY/WX    TMP DP  RH WIND       PRES   REMARKS
THOMSON        NOT AVBL
AUGUSTA-BUSH   CLEAR     72  70  93 CALM      30.03R
AUGUSTA-DANIEL CLEAR     77  70  79 SW3       30.05R
SWAINSBORO     FAIR      73  70  88 CALM      30.07R
VIDALIA        CLEAR     73  72  94 CALM      30.07R
EASTMAN        FAIR      71  71 100 CALM      30.09R FOG
HAZLEHURST     FAIR      75  75 100 CALM      30.06R
ALMA           CLEAR     73  72  96 CALM      30.06R
WAYCROSS       CLEAR     77  76  97 CALM      30.06R
JESUP          FAIR      72  72 100 CALM      30.07R
BAXLEY         FAIR      73  73 100 CALM      30.06R
BRUNSWICK      FOG       73  73 100 CALM      30.07R VSB 3/4
SAINT SIMONS   CLEAR     77  74  90 SW3       30.06R

$$

SCZ027-028-034-036>038-045-046-048>050-GAZ119-141-261200-
...LAKE AND SUPPLEMENTAL COASTAL OBSERVATIONS...

STATION/POSITION TIME  TEMP    WIND        PRES    WAVE   SWELL
                       AIR SEA DIR/SP/G            HT/PER HT/PER/DIR
                 (UTC) (F)     (DEG/KT/KT) (MB)    (FT/S) (FT/S/D)
WINYAH BAY       NOT AVBL
LAKE MURRAY      NOT AVBL
ACE BASIN NERRS  NOT AVBL
FORT PULASKI     1000   80 87  220/  4/  5 1017.8R
SAPELO ISLAND    1000   80     240/  7     1018.0R

$$

ANZ835-935-AMZ111-154-330-350-352-354-370-450-454-472-261200-
...C-MAN AND BUOY OBSERVATIONS...

STATION/POSITION TIME  TEMP    WIND        PRES    WAVE   SWELL
                       AIR SEA DIR/SP/G            HT/PER HT/PER/DIR
                 (UTC) (F)     (DEG/KT/KT) (MB)    (FT/S) (FT/S/D)
BUOY 41004       1050   85 86  230/ 12/ 14 1017.4R   2/ 4   2/120/ 8
BUOY 41008       1050   83 86  250/ 10/ 12 1017.8R   2/ 5   2/150/ 5
FOLLY BEACH CMAN 1000   83     230/  6/  8 1017.5R
CAPERS NEARSHORE 1008   83 82  230/ 12/ 16 1017.3R
FRIPP NEARSHORE  1008   83 86  260/ 14/ 17 1017.0R


STATION/POSITION TIME  TEMP    WIND        PRES    WAVE   SWELL
                       AIR SEA DIR/SP/G            HT/PER HT/PER/DIR
                 (UTC) (F)     (DEG/KT/KT) (MB)    (FT/S) (FT/S/D)
5E ST. MARYS GA  1101      85                N/A     2/ 5
FRYING PAN BUOY  1000   84 85  250/ 14/ 17 1017.0R
BUOY 41025       1050   83 84  250/ 17/ 21 1016.2R   5/ 5
CAPE LOOKOUT NC  1000   82     250/ 14/ 17 1016.4R
BUOY 41002       1050   83 84  220/ 10/ 12 1018.8R   2/ 8   2/110/ 8
BUOY 41010       1020   85 86  190/  8/ 10 1018.6R
ST AUGUSTINE FL  1100   76 84  230/  4/  6 1019.4R


$$




USA.gov is the U.S. government's official web portal to all federal, state and local government web resources and services.